Showing default

OPS 9342 (IDSCS 20), 3285

Orbit data source: Space-Track

OPS 9342 (IDSCS 20), 3285 is a payload satellite owned by SAMSO (US) in GEO that was launched on Thu, 13 Jun 1968 UTC via a TITAN IIIC launch vehicle from the Air Force Eastern Test Range (AFETR). Payloads include a variety of satellites, spacecraft, and rockets equipped with specific instruments for various scientific and technological missions. These include communications satellites like Starlink; space stations such as the ISS; scientific satellites like the Hubble; Earth observation satellites from companies like Planet Labs, Umbra, and HawkEye 360; GPS; miniature CubeSats for education and research; and military/defense satellites.

Not visible in the next 10 days
OPS 9342 (IDSCS 20) details
Identifier
3285, 1968-050B
Orbit
GEO
Last TLE update1 day ago
Origin
Flag of USSAMSO (US)
ManufacturerPhilco-Ford
MissionNon-operational Defense Communications
Bus & MotorIDCSP, Unknown motor
Mass45 kg wet, 45 kg dry
Launch date (UTC)
1968-06-13 (57 years ago)
Launch vehicle
TITAN IIIC
Launch site
Air Force Eastern Test Range (AFETR)
Object type
Payload
Rocket body
Debris
Shape & HBRPoly, 0.9 m
Radar Cross Section0.926 m², Medium (>0.1 m² and < 1m²)

Expand to show TLE details & history

TLE from 1 day ago
0 OPS 9342 (IDSCS 20)
1 03285U 68050B   24355.08348944 -.00000101  00000-0  00000-0 0  9999
2 03285   6.1234  56.5068 0015897 141.4045 206.4030  1.07819304222290
Epoch: 2024-12-20T02:00Z
Definitive object data (Epoch: 2024-12-20T02:00:13.487Z)
Latitude-1.29221°
Longitude-74.90304°
Altitude33,851.892 km
Speed3.146 km/s
True Right ascension02h 57m 13s
True Declination-1° 17' 27"
Sunlit
Object was in daylight at TLE epoch
Visualization TLE readout
Latitude-0.98189°
Longitude126.35067°
Altitude33,751.925 km
Speed3.153 km/s
Apparent Right ascension16h 49m 30s
Apparent Declination-7° 00' 38"
Sunlit
Object is in daylight
Visualization observer readout
Local Sidereal Time11:43:51
Azimuth104.152° ESE
Elevation5.771°
Doppler factor1
Orbital elements
Apogee altitude33,860.129 km
Perigee altitude33,732.399 km
Semi-major axis40,174.401 km
Eccentricity0.0015897
Inclination6.1234°
RAAN56.5068°
Arg. of periapsis141.4045°
True anomaly206.32214°
Mean anomaly206.403°
Eccentric anomaly206.36255°
Mean motion0.26954 °/min
BSTARUnknown
Orbital period1335.62 mins
Loading historical data...
3285 neighbors
Authenticating...
Loading maneuver chart data...
Loading historical data...
Loading historical data...
Loading historical data...
Loading historical data...
Loading historical data...
Loading historical data...
Loading historical data...

OPS 9342 (IDSCS 20) Visibility forecast

Observer location: undefined°, undefined

OPS 9342 (IDSCS 20) is not visible in the next 10 days
Span
Click to sort rows by Start time (UTC) header in descending order
Start Az.
Max El. time (UTC)
Max El. Az.
Max El.
End time (UTC)
End Az.
|